This is the latest recevied weather packets stored in our database for station/object OE3PDB-3. If no packets are shown the sender has not sent any weather packets the latest 10 day(s).
| Time | Temp. | Humidity | Pressure | Rain* | Wind** | Luminosity | Snow |
|---|---|---|---|---|---|---|---|
| 1777651849 | 22.78° C | 32% | 1024.5 hPa | 0 mm | - | - | - |
| 1777651249 | 22.78° C | 31% | 1024.5 hPa | 0 mm | - | - | - |
| 1777650649 | 23.33° C | 30% | 1024.7 hPa | 0 mm | - | - | - |
| 1777650049 | 23.89° C | 30% | 1024.8 hPa | 0 mm | - | - | - |
| 1777649449 | 23.89° C | 30% | 1024.8 hPa | 0 mm | - | - | - |
| 1777648849 | 23.89° C | 30% | 1025 hPa | 0 mm | - | - | - |
| 1777648249 | 23.89° C | 30% | 1025 hPa | 0 mm | - | - | - |
| 1777647649 | 24.44° C | 30% | 1024.9 hPa | 0 mm | - | - | - |
| 1777647050 | 24.44° C | 30% | 1025.2 hPa | 0 mm | - | - | - |
| 1777646450 | 23.89° C | 30% | 1025.3 hPa | 0 mm | - | - | - |
| 1777645850 | 23.89° C | 30% | 1025.3 hPa | 0 mm | - | - | - |
| 1777645250 | 25° C | 30% | 1025.4 hPa | 0 mm | - | - | - |
| 1777644650 | 25° C | 31% | 1025.2 hPa | 0 mm | - | - | - |
| 1777644050 | 24.44° C | 30% | 1025.4 hPa | 0 mm | - | - | - |
| 1777643450 | 23.89° C | 31% | 1025.6 hPa | 0 mm | - | - | - |
| 1777642850 | 22.78° C | 32% | 1025.6 hPa | 0 mm | - | - | - |
| 1777642250 | 22.22° C | 33% | 1025.8 hPa | 0 mm | - | - | - |
| 1777641650 | 21.11° C | 33% | 1025.9 hPa | 0 mm | - | - | - |
| 1777641050 | 22.22° C | 32% | 1026.1 hPa | 0 mm | - | - | - |
| 1777640450 | 22.22° C | 33% | 1026 hPa | 0 mm | - | - | - |
| 1777639850 | 21.67° C | 33% | 1026.2 hPa | 0 mm | - | - | - |
| 1777639250 | 21.11° C | 35% | 1026.4 hPa | 0 mm | - | - | - |
| 1777638650 | 20.56° C | 35% | 1026.4 hPa | 0 mm | - | - | - |
| 1777638050 | 20° C | 37% | 1026.4 hPa | 0 mm | - | - | - |
| 1777637450 | 18.89° C | 38% | 1026.5 hPa | 0 mm | - | - | - |
* Rain latest hour (hover to see other rain measurements)
** Current wind speed in m/s (hover to see current wind gust speed)